SCP
0 0 0 0 0 0 0 0 0 0 0 0 0 0 0 0 0 0 0 0 0 0 0 0 0 0 0 0 0 0 0 0 0 0 0 0 0 0 0 0 0 0 0 0 0 0 0 0 0
0 0 0 0 0 0 0 0 0 0 0 0 0 0 0 0 0 0 0 0 0 0 0 0 1 1 1 0 0 0 0 0 0 0 0 0 0 0 0 0 0 0 0 0 0 0 0 0 0
0 0 0 0 0 0 0 0 0 0 0 0 0 0 0 0 0 0 0 0 0 1 1 1 1 1 1 1 0 0 0 0 0 0 0 0 0 0 0 0 0 0 0 0 0 0 0 0 0
0 0 0 0 0 0 0 0 0 0 0 0 0 0 0 0 0 0 0 0 1 1 1 1 1 1 1 1 1 1 0 0 0 0 0 0 0 0 0 0 0 0 0 0 0 0 0 0 0
0 0 0 0 0 0 0 0 0 0 0 0 0 0 0 0 0 0 0 1 1 1 1 1 1 1 1 1 1 1 1 0 0 0 0 0 0 0 0 0 0 0 0 0 0 0 0 0 0
0 0 0 0 0 0 0 0 0 0 0 0 0 0 0 0 0 0 0 1 1 1 1 1 1 1 1 1 1 1 1 0 0 0 0 0 0 0 0 0 0 0 0 0 0 0 0 0 0
0 0 0 0 0 0 0 0 0 0 0 0 0 0 0 0 0 0 0 1 1 1 1 1 1 1 1 1 1 1 1 1 0 0 0 0 0 0 0 0 0 0 0 0 0 0 0 0 0
0 0 0 0 0 0 0 0 0 0 0 0 0 0 0 0 1 1 1 1 1 1 1 1 1 1 1 1 1 1 1 1 0 0 0 0 0 0 0 0 0 0 0 0 0 0 0 0 0
0 0 0 0 0 0 0 0 0 0 0 0 0 1 1 1 1 1 1 1 1 1 0 1 1 1 1 1 1 1 1 1 0 0 0 0 0 0 0 0 0 0 0 0 0 0 0 0 0
0 0 0 0 0 0 0 0 0 0 0 1 1 1 1 1 1 1 1 1 1 1 0 0 1 1 1 1 1 1 1 1 1 0 0 0 0 0 0 0 0 0 0 0 0 0 0 0 0
0 0 0 0 0 0 0 0 0 0 1 1 1 1 1 1 1 1 1 1 1 0 0 0 1 1 1 1 1 1 1 1 1 1 1 1 1 1 1 0 0 0 0 0 0 0 1 1 1
0 0 0 0 0 0 0 0 1 1 1 1 1 1 1 1 1 1 1 1 1 0 0 0 0 1 1 1 1 1 1 1 1 1 1 1 1 1 1 1 0 0 0 1 1 1 1 1 1
0 0 0 0 0 0 0 1 1 1 1 1 2 2 2 1 1 1 1 1 1 0 0 0 0 0 1 1 1 0 0 0 0 0 0 1 1 1 1 1 0 0 0 1 1 1 1 1 1
0 0 0 0 0 0 1 1 1 1 1 2 2 2 2 1 1 1 1 1 1 0 0 0 0 0 0 0 0 0 0 0 0 0 0 0 0 0 0 0 0 0 0 0 1 1 1 1 1
0 0 0 0 0 0 1 1 1 1 1 2 2 2 1 1 1 1 1 0 0 0 0 0 0 0 0 0 0 0 0 0 0 0 0 0 0 0 0 0 0 0 0 0 0 0 0 0 0
0 0 0 0 0 0 0 1 1 1 1 1 1 1 1 1 1 1 0 0 0 0 0 0 0 0 0 0 0 0 0 0 0 0 0 0 0 0 0 0 0 0 0 0 0 0 0 0 0
0 0 0 0 0 0 0 0 1 1 1 1 1 1 1 1 1 0 0 0 0 0 0 0 0 0 0 0 0 0 0 0 0 0 0 0 0 0 0 0 0 0 0 0 0 0 0 0 0
0 0 0 0 0 0 0 0 1 1 1 1 1 1 1 0 0 0 0 0 0 0 0 0 0 0 0 0 0 0 0 0 0 0 0 0 0 0 0 0 0 0 0 0 0 0 0 0 0
0 0 0 0 0 0 0 0 0 0 0 0 0 0 0 0 0 0 0 0 0 0 0 0 0 0 0 0 0 0 0 0 0 0 0 0 0 0 0 0 0 0 0 0 0 0 0 0 0
0 0 0 0 0 0 0 0 0 0 0 0 0 0 0 0 0 0 0 0 0 0 0 0 0 0 0 0 0 0 0 0 0 0 0 0 0 0 0 0 0 0 0 0 0 0 0 0 0
0 0 0 0 0 0 0 0 0 0 0 0 0 0 0 0 0 0 0 0 0 0 0 0 0 0 0 0 0 0 0 0 0 0 0 0 0 0 0 0 0 0 0 0 0 0 0 0 0
0 0 0 0 0 0 0 0 0 0 0 0 0 0 0 0 0 -0 -0 0 0 0 0 0 0 0 0 0 0 0 0 0 0 0 0 0 0 0 0 0 0 0 0 0 0 0 0 0 0
0 0 0 0 0 0 0 0 0 0 0 0 0 0 0 0 0 -0 -0 0 0 0 0 0 0 0 0 0 0 0 0 0 0 0 0 0 0 0 0 0 0 0 0 0 0 0 0 0 0
0 0 0 0 0 0 0 0 0 0 0 0 0 0 0 0 0 0 0 0 0 0 0 0 0 0 0 0 0 0 0 0 0 0 0 0 0 0 0 0 0 0 0 0 0 0 0 0 0
0 0 0 0 0 0 0 0 0 0 0 0 0 0 0 0 0 0 0 0 0 0 0 0 0 0 0 0 0 0 0 0 0 0 0 0 0 0 0 0 0 0 0 0 0 0 0 0 0
0 0 0 0 0 0 0 0 0 0 0 0 0 0 0 0 0 0 0 0 0 0 0 0 0 0 0 0 0 0 0 0 0 0 0 0 0 0 0 0 0 0 0 0 0 0 0 0 0
0 0 0 0 0 0 0 0 0 0 0 0 0 0 0 0 0 0 0 0 0 0 0 0 0 0 0 0 0 0 0 0 0 0 0 0 0 0 0 0 0 0 0 0 0 0 0 0 0
0 0 0 0 0 0 0 0 0 0 0 0 0 0 0 0 0 0 0 0 0 0 0 0 0 0 0 0 0 0 0 0 0 0 0 0 0 0 0 0 0 0 0 0 0 0 0 0 0
0 0 0 0 0 0 0 0 0 0 0 0 0 0 0 0 0 0 0 0 0 0 0 0 0 0 0 0 0 0 0 0 0 0 0 0 0 0 0 0 0 0 0 0 0 0 0 0 0
0 0 0 0 0 0 0 0 0 0 0 0 0 0 0 0 0 0 0 0 0 0 0 0 0 0 0 0 0 0 0 0 0 0 0 0 0 0 0 0 0 0 0 0 0 0 0 0 0
Wind_Speed
7 4 1 1 2 2 4 5 3 5 4 2 1 2 3 2 1 1 2 9 14 13 11 15 17 18 18 17 17 17 17 17 17 16 16 16 15 15 14 13 12 11 10 9 9 8 9 9 9
4 3 1 2 2 2 5 4 4 4 4 3 1 3 4 3 3 6 5 8 14 13 9 12 18 17 17 17 16 16 16 16 16 15 15 15 14 14 13 13 12 11 10 9 9 9 9 9 9
4 1 2 2 0 2 5 4 5 5 5 1 2 4 4 2 4 5 6 13 13 11 8 12 19 17 17 16 15 15 15 15 15 14 14 14 14 13 13 12 11 10 10 9 9 9 9 9 9
2 2 2 2 3 5 6 9 8 7 4 2 3 4 4 4 2 6 13 15 14 10 8 11 18 17 16 16 15 14 14 14 14 14 13 13 12 12 11 11 10 10 9 9 9 9 9 8 8
3 3 3 2 5 6 6 8 6 5 3 3 3 3 3 5 7 13 13 15 14 11 8 10 17 16 16 15 14 14 13 13 13 13 13 12 12 11 11 10 10 9 9 9 8 9 8 8 8
3 3 2 3 6 7 6 5 5 5 3 2 3 3 3 4 7 10 11 11 11 11 7 9 16 16 15 15 14 13 13 13 13 13 12 12 11 11 11 11 10 10 9 8 8 9 8 8 7
3 3 1 3 5 6 5 4 5 6 4 2 2 4 2 4 6 8 9 10 9 8 6 5 7 10 14 14 14 13 13 12 12 12 12 12 12 11 11 10 11 10 10 9 9 9 9 9 8
4 4 1 3 4 6 4 4 3 4 3 2 3 4 3 5 9 10 10 9 9 7 5 4 5 5 5 7 12 12 12 12 12 11 12 12 12 11 11 10 10 11 11 11 11 10 10 9 9
3 4 2 5 5 7 4 5 5 2 2 4 4 3 5 13 13 11 10 8 7 7 4 4 4 4 4 3 7 9 11 11 10 9 11 10 5 4 6 8 11 11 11 12 12 11 11 10 9
4 3 8 7 6 6 7 5 5 2 3 3 5 7 12 14 12 11 10 9 8 8 6 3 3 4 4 3 3 2 3 3 4 3 4 3 2 3 5 6 11 12 12 12 13 13 11 9 4
5 7 7 7 9 7 6 5 3 1 2 1 5 9 11 12 9 8 7 7 7 6 6 5 4 4 3 1 1 1 1 1 2 3 3 2 2 2 3 2 4 5 8 5 7 7 5 5 4
5 8 7 7 5 3 3 1 4 5 2 3 7 9 10 9 7 6 6 5 4 4 4 4 4 4 4 3 1 1 1 1 2 2 3 2 2 2 2 2 3 3 2 3 4 3 5 6 7
5 6 5 6 4 1 3 4 5 5 5 8 10 10 8 8 6 5 4 4 3 2 2 1 2 2 2 2 1 2 1 2 2 2 2 3 3 3 2 2 3 3 3 3 4 4 6 6 7
4 4 4 5 3 2 7 5 5 5 6 10 11 10 9 8 6 6 5 4 3 3 3 2 2 1 2 2 2 1 2 2 1 2 2 3 3 2 2 3 3 2 3 3 3 4 5 5 5
2 3 5 3 2 1 5 7 5 3 6 9 10 10 9 7 6 5 3 3 3 3 3 4 3 2 2 1 1 1 1 1 1 1 1 1 1 2 2 2 2 2 2 3 3 3 3 4 5
3 2 3 4 4 2 6 3 2 2 6 8 8 8 8 6 4 4 3 2 2 3 3 3 3 4 3 2 1 1 0 1 1 0 0 0 0 1 1 1 2 2 2 2 2 2 2 3 4
3 2 3 5 4 3 5 4 1 2 4 6 6 6 6 5 3 3 3 3 2 3 3 4 4 4 4 3 2 2 1 1 0 0 0 0 0 0 1 1 2 1 1 1 2 2 2 3 4
3 3 2 2 3 5 5 5 3 3 3 3 4 3 4 3 2 2 2 3 3 3 3 3 3 3 3 2 2 2 2 1 1 1 0 1 1 1 1 1 2 1 1 1 1 2 2 3 4
3 2 2 1 1 5 6 5 2 3 3 2 2 1 2 2 1 1 1 2 2 2 2 2 3 2 2 1 1 1 1 0 0 0 0 0 1 1 1 1 1 1 1 2 2 2 3 2 2
2 2 1 1 4 5 4 3 1 2 1 1 2 1 1 1 0 1 1 2 2 2 2 2 2 2 2 1 1 1 1 1 1 1 1 1 1 2 2 2 2 2 2 2 2 2 1 2 1
2 3 4 4 4 5 2 2 2 2 1 1 1 1 2 3 3 3 2 3 2 3 3 3 2 1 1 1 1 2 2 1 1 1 2 2 2 2 2 2 2 2 2 2 3 2 3 2 2
2 2 4 5 4 2 2 0 3 2 3 3 2 2 3 4 4 4 3 3 4 4 3 2 2 1 1 1 1 1 1 1 2 2 2 3 3 3 3 3 3 3 2 3 4 3 3 3 2
2 4 6 5 5 3 4 2 5 2 3 4 4 4 4 4 4 4 4 4 4 3 3 2 2 1 1 1 0 0 1 2 2 2 3 3 3 3 4 3 2 3 3 3 4 3 3 3 3
6 6 6 5 5 3 2 1 4 3 4 4 3 4 4 4 4 3 3 2 2 2 2 2 1 1 1 1 0 0 2 3 3 3 3 3 3 3 4 3 3 3 3 4 4 3 4 4 4
5 6 4 5 5 2 1 1 7 5 5 5 5 5 3 3 3 3 3 3 2 2 1 1 1 1 2 2 1 1 2 2 3 4 3 4 3 3 5 4 3 3 4 4 4 4 4 4 4
2 5 6 3 2 3 2 3 7 5 4 4 4 3 2 2 2 3 3 3 2 2 1 1 1 1 2 2 2 2 2 2 3 4 4 4 4 4 5 5 5 5 5 5 4 4 5 4 5
5 3 4 7 2 1 4 6 8 2 2 2 3 2 3 2 2 2 1 1 1 1 1 1 0 1 2 2 3 3 3 3 3 4 4 4 4 5 5 5 5 5 5 5 4 4 5 4 5
4 7 5 5 4 1 4 4 5 5 5 4 3 3 3 2 2 2 1 1 1 1 1 1 0 1 2 3 3 3 3 4 4 4 5 5 5 5 6 6 6 6 5 5 4 5 5 5 5
3 4 6 5 4 5 2 7 7 7 6 6 6 4 4 3 3 2 1 1 1 1 1 1 2 2 3 3 3 4 4 4 4 4 5 5 5 6 6 6 6 6 6 6 5 6 6 7 7
2 4 6 5 3 4 3 9 5 6 5 5 5 3 3 4 3 2 1 1 1 1 2 2 3 3 3 3 3 4 5 5 5 5 6 5 6 6 6 6 6 7 7 6 6 8 7 7 8
Wind_Direction
145 136 133 67 44 27 278 264 254 290 299 299 8 72 86 88 153 166 103 133 134 143 152 154 152 148 144 142 140 139 139 139 140 141 143 145 148 150 152 154 155 156 154 150 146 141 136 133 131
136 148 77 57 63 347 291 264 269 269 268 294 5 80 70 60 73 109 128 136 138 142 145 151 153 150 147 145 144 144 144 144 145 146 148 150 152 155 156 158 159 159 158 156 154 150 145 140 138
151 171 88 64 90 229 279 283 278 289 285 291 51 56 73 80 125 140 145 138 135 137 138 156 155 153 151 149 149 149 149 150 151 152 154 156 158 160 161 162 163 163 163 163 162 158 152 149 146
128 55 55 53 272 246 251 281 298 309 330 42 90 60 57 34 127 135 136 139 136 134 138 159 156 156 154 154 155 156 156 157 158 159 161 163 165 167 167 168 169 170 170 171 169 165 161 158 156
73 79 44 337 277 265 261 284 301 323 333 30 69 74 35 19 91 122 134 140 141 137 141 157 157 158 159 159 160 161 163 165 166 168 170 172 173 176 176 177 178 178 179 180 179 174 172 171 169
63 66 63 295 283 283 286 306 340 350 338 30 77 80 44 75 104 123 129 134 140 140 138 152 159 161 163 164 166 169 171 173 175 177 179 181 182 185 186 186 187 189 191 191 190 187 184 184 185
107 98 204 265 283 295 304 339 0 345 349 358 87 92 77 109 106 112 116 123 129 128 123 135 152 162 168 172 174 177 181 183 185 186 188 189 191 194 196 197 197 201 203 203 202 201 200 198 198
133 101 306 275 269 277 296 344 346 337 314 28 65 117 166 141 116 108 109 118 126 122 119 124 130 139 155 173 184 186 189 191 193 195 197 200 202 203 207 207 209 210 212 214 214 212 212 210 210
114 77 253 244 242 263 293 333 324 313 54 51 43 76 125 123 118 115 117 123 135 139 128 127 130 131 138 164 194 193 197 201 202 206 209 208 209 211 217 220 220 224 224 224 224 223 223 221 220
117 170 232 227 223 256 292 309 304 332 40 53 60 75 112 121 126 130 138 147 158 163 162 152 147 142 143 178 189 194 203 202 200 202 219 208 194 215 228 238 235 238 238 236 234 232 230 229 224
174 209 242 254 248 255 282 302 339 68 25 155 136 129 127 124 128 134 141 154 164 166 167 167 161 145 145 154 186 199 205 198 203 209 223 219 202 216 235 242 255 256 255 249 245 242 228 221 218
204 245 244 273 279 264 254 268 53 55 53 81 119 126 124 125 127 137 145 152 150 155 164 167 161 160 166 173 190 209 221 215 211 208 214 218 218 219 225 232 241 246 251 248 239 238 231 230 227
225 260 265 268 293 292 85 82 94 64 73 85 97 95 97 93 89 81 92 100 105 116 114 117 128 159 169 168 185 198 214 233 232 219 215 212 214 221 228 236 240 247 248 248 249 240 238 236 236
240 253 287 296 303 55 90 68 75 65 82 86 89 86 82 84 81 70 64 82 103 110 99 84 88 125 135 151 166 177 196 211 206 217 233 228 220 219 218 236 242 245 247 246 244 244 243 242 239
296 301 322 344 1 86 92 50 48 82 93 86 84 85 81 75 79 84 89 102 112 116 124 125 137 114 109 130 157 137 182 186 216 237 245 233 211 210 219 231 245 254 263 265 257 252 247 249 246
359 9 334 325 8 32 91 97 49 44 94 88 88 88 83 69 71 85 100 99 100 107 109 110 122 111 119 133 106 94 120 130 184 181 84 89 171 201 214 237 257 262 267 261 257 253 256 256 252
16 337 294 316 7 43 88 124 84 25 85 95 94 95 102 100 94 106 121 118 112 106 105 98 102 111 117 117 108 97 85 90 91 80 71 310 291 240 220 247 261 267 263 257 264 252 243 261 260
258 267 281 313 348 58 87 106 85 34 77 89 87 87 92 96 108 121 113 118 113 111 110 116 112 107 114 108 98 82 64 44 37 32 333 330 319 287 241 252 264 257 260 265 259 263 249 250 263
220 230 266 299 50 70 85 95 62 18 40 32 34 84 97 102 142 140 143 126 113 109 117 128 127 126 122 111 114 118 122 277 300 263 248 309 293 284 244 256 273 255 249 265 268 271 271 261 246
199 201 190 76 67 87 89 65 12 9 1 310 274 245 163 169 156 184 184 178 169 170 178 175 167 164 164 144 153 161 155 212 245 296 312 291 284 272 252 234 252 248 247 270 267 248 267 268 232
210 196 194 159 95 65 100 17 311 299 297 272 239 222 242 219 202 224 220 215 204 213 214 205 203 193 186 122 89 65 42 12 348 317 306 300 299 292 281 267 254 247 225 242 251 237 236 256 262
245 234 146 126 103 42 40 328 294 296 310 291 278 259 244 249 230 229 228 227 225 228 221 214 209 212 220 159 151 161 174 240 256 268 283 299 301 296 284 270 258 248 237 242 250 234 225 228 252
152 78 89 97 106 70 25 63 297 335 299 276 261 244 244 245 234 235 238 231 226 216 203 201 195 214 227 186 177 192 257 258 287 297 302 304 304 299 291 275 264 253 243 244 247 243 229 220 223
116 73 60 55 70 50 346 49 286 253 234 258 262 251 245 248 244 240 249 240 233 206 178 167 169 263 315 330 343 276 279 290 303 306 306 305 304 301 297 283 267 260 251 246 242 238 234 229 227
74 81 34 8 18 283 281 260 256 248 227 226 247 262 265 256 233 225 226 220 214 192 176 147 148 296 340 345 329 299 274 272 271 279 282 289 294 292 291 292 278 267 256 253 242 232 235 229 227
150 133 152 188 223 286 321 261 260 253 245 235 238 245 251 248 228 221 216 201 197 182 152 130 133 304 333 329 312 301 285 272 271 272 271 272 270 275 283 285 279 271 265 263 249 239 239 230 229
137 133 144 121 106 3 300 297 303 271 269 238 237 234 227 218 200 188 168 157 153 131 117 137 145 313 321 316 311 305 301 288 280 282 276 273 273 279 285 286 282 277 270 263 254 245 248 238 233
112 137 101 104 127 287 308 291 257 260 248 237 234 234 224 175 150 147 137 111 84 72 46 39 40 293 297 304 299 301 297 292 288 290 289 286 285 284 289 287 284 281 274 264 252 251 251 246 244
104 91 98 102 141 148 241 269 229 222 222 216 224 219 203 191 177 160 116 69 58 33 17 357 337 315 308 307 303 304 299 299 299 291 287 288 288 290 287 284 283 280 277 269 257 253 251 245 248
158 158 146 143 189 166 177 265 263 229 226 211 215 205 180 169 159 144 125 75 22 344 331 322 311 301 294 294 296 296 296 299 297 292 290 289 288 287 284 282 280 278 276 267 256 258 256 247 248